Location: Unspecified
(0.0000°N, 0.0000°E)
Time: 11:26:31
(UTC+00:00)

Vanguard 2 Rocket - Pass Details

Date: 20 November 2019
Orbit: 554 x 3326 km, 32.9° (Epoch: 08 December)

Event Time Altitude Azimuth Distance (km) Brightness Sun altitude
Rises 08:19:19 0° 304° (NW) 4,932 10.2 35.8°
Reaches altitude 10° 08:22:00 10° 304° (NW) 4,239 9.9 36.5°
Maximum altitude 08:34:41 87° 216° (SW) 2,681 10.0 39.3°
Drops below altitude 10° 08:54:39 10° 127° (SE) 6,272 12.2 43.8°
Sets 08:59:40 0° 126° (SE) 7,310 12.3 44.9°
